GLO1622 SBBR-SBCF

Flight info

Callsign GLO1622
Flight time 0h 58m
Altitude 33000
Route GEPMO UZ35 REINA
Aircraft B738/M-SDFGIKLORWXY/LB1

Departure

Time 2026-05-07 20:03
Airport Presidente Juscelino Kubitschek International Airport (SBBR)

Arrival

Time 2026-05-07 21:01
Airport Tancredo Neves International Airport (SBCF)
Time Latitude Longitude Altitude Speed Heading
2026-05-07 19:38 -15.87123 -47.91815 3469 ft 0 kts 177°
2026-05-07 19:49 -15.87108 -47.91816 3469 ft 4 kts 178°
2026-05-07 19:49 -15.87082 -47.91818 3469 ft 4 kts 161°
2026-05-07 19:49 -15.87067 -47.91829 3469 ft 3 kts 86°
2026-05-07 19:49 -15.87069 -47.91855 3469 ft 4 kts 86°
2026-05-07 19:50 -15.87069 -47.91865 3469 ft 0 kts 86°
2026-05-07 19:54 -15.87068 -47.91845 3469 ft 7 kts 86°
2026-05-07 19:54 -15.87064 -47.91784 3469 ft 9 kts 86°
2026-05-07 19:54 -15.87060 -47.91721 3469 ft 9 kts 88°
2026-05-07 19:55 -15.87099 -47.91684 3469 ft 8 kts 174°
2026-05-07 19:55 -15.87156 -47.91679 3469 ft 9 kts 175°
2026-05-07 19:55 -15.87222 -47.91673 3469 ft 10 kts 175°
2026-05-07 19:55 -15.87299 -47.91669 3469 ft 12 kts 177°
2026-05-07 19:56 -15.87387 -47.91662 3469 ft 13 kts 178°
2026-05-07 19:56 -15.87479 -47.91659 3469 ft 13 kts 176°
2026-05-07 19:56 -15.87569 -47.91652 3469 ft 13 kts 177°
2026-05-07 19:56 -15.87627 -47.91649 3469 ft 13 kts 177°
2026-05-07 19:57 -15.87713 -47.91650 3469 ft 12 kts 203°
2026-05-07 19:57 -15.87734 -47.91729 3468 ft 12 kts 261°
2026-05-07 19:57 -15.87747 -47.91814 3469 ft 12 kts 262°
2026-05-07 19:57 -15.87751 -47.91896 3470 ft 11 kts 267°
2026-05-07 19:58 -15.87756 -47.91976 3470 ft 11 kts 264°
2026-05-07 19:58 -15.87764 -47.92054 3470 ft 11 kts 264°
2026-05-07 19:58 -15.87770 -47.92130 3470 ft 10 kts 267°
2026-05-07 19:58 -15.87773 -47.92205 3470 ft 11 kts 268°
2026-05-07 19:59 -15.87779 -47.92310 3470 ft 18 kts 265°
2026-05-07 19:59 -15.87788 -47.92450 3470 ft 19 kts 266°
2026-05-07 19:59 -15.87797 -47.92587 3470 ft 19 kts 266°
2026-05-07 19:59 -15.87806 -47.92722 3470 ft 18 kts 266°
2026-05-07 20:00 -15.87814 -47.92850 3471 ft 18 kts 266°
2026-05-07 20:00 -15.87821 -47.92975 3470 ft 17 kts 266°
2026-05-07 20:00 -15.87829 -47.93096 3470 ft 16 kts 264°
2026-05-07 20:00 -15.87837 -47.93210 3471 ft 16 kts 266°
2026-05-07 20:01 -15.87845 -47.93321 3471 ft 14 kts 259°
2026-05-07 20:01 -15.87881 -47.93369 3472 ft 8 kts 206°
2026-05-07 20:01 -15.87933 -47.93372 3474 ft 7 kts 166°
2026-05-07 20:01 -15.87963 -47.93331 3476 ft 7 kts 114°
2026-05-07 20:02 -15.87984 -47.93284 3473 ft 7 kts 116°
2026-05-07 20:02 -15.88008 -47.93232 3473 ft 11 kts 112°
2026-05-07 20:02 -15.88005 -47.93095 3472 ft 41 kts 85°
2026-05-07 20:02 -15.87969 -47.92547 3475 ft 109 kts 86°
2026-05-07 20:03 -15.87898 -47.91547 3470 ft 166 kts 84°
2026-05-07 20:03 -15.87807 -47.90262 3854 ft 184 kts 86°
2026-05-07 20:03 -15.87747 -47.88909 4590 ft 189 kts 85°
2026-05-07 20:03 -15.87910 -47.87604 5299 ft 186 kts 118°
2026-05-07 20:04 -15.88926 -47.86787 5653 ft 195 kts 168°
2026-05-07 20:04 -15.90281 -47.86803 6100 ft 196 kts 181°
2026-05-07 20:04 -15.91661 -47.86836 6516 ft 200 kts 176°
2026-05-07 20:04 -15.93093 -47.86781 6756 ft 216 kts 174°
2026-05-07 20:05 -15.94652 -47.86649 6936 ft 235 kts 172°
2026-05-07 20:05 -15.96354 -47.86439 7118 ft 258 kts 171°
2026-05-07 20:05 -15.98195 -47.86156 7412 ft 278 kts 169°
2026-05-07 20:05 -16.00144 -47.85801 7824 ft 293 kts 168°
2026-05-07 20:06 -16.02174 -47.85400 8516 ft 299 kts 167°
2026-05-07 20:06 -16.04234 -47.84983 8989 ft 302 kts 167°
2026-05-07 20:06 -16.06287 -47.84535 9082 ft 301 kts 161°
2026-05-07 20:06 -16.08084 -47.83465 9216 ft 298 kts 137°
2026-05-07 20:07 -16.09666 -47.82038 9884 ft 302 kts 136°
2026-05-07 20:07 -16.11232 -47.80599 10538 ft 309 kts 136°
2026-05-07 20:07 -16.12900 -47.79057 10711 ft 332 kts 136°
2026-05-07 20:07 -16.14689 -47.77405 10972 ft 350 kts 137°
2026-05-07 20:08 -16.16540 -47.75700 11543 ft 357 kts 137°
2026-05-07 20:08 -16.18413 -47.73980 12197 ft 361 kts 137°
2026-05-07 20:08 -16.20315 -47.72238 12871 ft 364 kts 137°
2026-05-07 20:08 -16.22221 -47.70494 13579 ft 366 kts 137°
2026-05-07 20:09 -16.24116 -47.68760 14280 ft 367 kts 137°
2026-05-07 20:09 -16.26044 -47.66997 14952 ft 369 kts 137°
2026-05-07 20:09 -16.27974 -47.65230 15616 ft 370 kts 137°
2026-05-07 20:10 -16.31865 -47.61665 16851 ft 374 kts 138°
2026-05-07 20:10 -16.33823 -47.59871 17445 ft 376 kts 138°
2026-05-07 20:10 -16.35790 -47.58068 18035 ft 377 kts 138°
2026-05-07 20:10 -16.37765 -47.56258 18601 ft 379 kts 138°
2026-05-07 20:11 -16.39754 -47.54434 19137 ft 381 kts 138°
2026-05-07 20:11 -16.41749 -47.52605 19638 ft 384 kts 138°
2026-05-07 20:11 -16.43734 -47.50783 20124 ft 387 kts 138°
2026-05-07 20:11 -16.45760 -47.48923 20636 ft 388 kts 139°
2026-05-07 20:12 -16.47793 -47.47057 21117 ft 390 kts 139°
2026-05-07 20:12 -16.49834 -47.45182 21577 ft 393 kts 139°
2026-05-07 20:12 -16.51896 -47.43288 22036 ft 395 kts 139°
2026-05-07 20:12 -16.53957 -47.41394 22477 ft 397 kts 139°
2026-05-07 20:13 -16.56034 -47.39484 22913 ft 399 kts 139°
2026-05-07 20:13 -16.58119 -47.37567 23322 ft 401 kts 139°
2026-05-07 20:13 -16.60220 -47.35635 23722 ft 403 kts 139°
2026-05-07 20:13 -16.62331 -47.33693 24110 ft 405 kts 139°
2026-05-07 20:14 -16.64419 -47.31771 24498 ft 406 kts 139°
2026-05-07 20:14 -16.66546 -47.29812 24848 ft 409 kts 139°
2026-05-07 20:14 -16.68685 -47.27842 25195 ft 411 kts 139°
2026-05-07 20:14 -16.70832 -47.25864 25558 ft 413 kts 139°
2026-05-07 20:15 -16.72998 -47.23868 25892 ft 415 kts 140°
2026-05-07 20:15 -16.75170 -47.21866 26205 ft 418 kts 140°
2026-05-07 20:15 -16.77351 -47.19854 26546 ft 419 kts 140°
2026-05-07 20:15 -16.79545 -47.17830 26881 ft 421 kts 140°
2026-05-07 20:16 -16.81747 -47.15798 27172 ft 423 kts 140°
2026-05-07 20:16 -16.83960 -47.13755 27483 ft 425 kts 140°
2026-05-07 20:16 -16.86148 -47.11723 27774 ft 427 kts 139°
2026-05-07 20:16 -16.88346 -47.09621 28070 ft 429 kts 139°
2026-05-07 20:17 -16.90535 -47.07496 28387 ft 430 kts 139°
2026-05-07 20:17 -16.92730 -47.05357 28663 ft 432 kts 139°
2026-05-07 20:17 -16.94932 -47.03213 28933 ft 434 kts 139°
2026-05-07 20:17 -16.97142 -47.01065 29274 ft 434 kts 139°
2026-05-07 20:18 -16.99357 -46.98916 29682 ft 432 kts 139°
2026-05-07 20:18 -17.01555 -46.96786 30105 ft 430 kts 140°
2026-05-07 20:18 -17.03747 -46.94662 30490 ft 429 kts 140°
2026-05-07 20:18 -17.05937 -46.92540 30843 ft 429 kts 140°
2026-05-07 20:19 -17.08120 -46.90424 31199 ft 428 kts 140°
2026-05-07 20:19 -17.10304 -46.88307 31567 ft 427 kts 140°
2026-05-07 20:19 -17.12478 -46.86197 31932 ft 426 kts 140°
2026-05-07 20:19 -17.14652 -46.84087 32261 ft 426 kts 140°
2026-05-07 20:20 -17.16823 -46.81980 32581 ft 425 kts 140°
2026-05-07 20:20 -17.18991 -46.79873 32917 ft 424 kts 141°
2026-05-07 20:20 -17.21131 -46.77790 33097 ft 427 kts 141°
2026-05-07 20:21 -17.25515 -46.73521 33087 ft 429 kts 140°
2026-05-07 20:21 -17.29854 -46.69286 33087 ft 422 kts 140°
2026-05-07 20:22 -17.34122 -46.65121 33101 ft 422 kts 141°
2026-05-07 20:22 -17.38428 -46.60918 33093 ft 422 kts 141°
2026-05-07 20:23 -17.42734 -46.56711 33093 ft 422 kts 141°
2026-05-07 20:23 -17.47004 -46.52537 33101 ft 422 kts 141°
2026-05-07 20:24 -17.51306 -46.48328 33107 ft 423 kts 141°
2026-05-07 20:24 -17.55610 -46.44115 33097 ft 423 kts 140°
2026-05-07 20:25 -17.59921 -46.39891 33103 ft 423 kts 140°
2026-05-07 20:25 -17.64201 -46.35695 33103 ft 423 kts 140°
2026-05-07 20:26 -17.68508 -46.31469 33100 ft 423 kts 140°
2026-05-07 20:26 -17.72813 -46.27243 33103 ft 423 kts 140°
2026-05-07 20:27 -17.77082 -46.23049 33100 ft 423 kts 140°
2026-05-07 20:27 -17.81375 -46.18828 33100 ft 422 kts 140°
2026-05-07 20:28 -17.85671 -46.14602 33103 ft 422 kts 140°
2026-05-07 20:28 -17.89956 -46.10382 33101 ft 422 kts 140°
2026-05-07 20:29 -17.94206 -46.06195 33100 ft 421 kts 140°
2026-05-07 20:29 -17.98458 -46.02004 33102 ft 420 kts 140°
2026-05-07 20:30 -18.02710 -45.97810 33103 ft 420 kts 140°
2026-05-07 20:30 -18.06978 -45.93594 33100 ft 420 kts 140°
2026-05-07 20:31 -18.11233 -45.89390 33102 ft 420 kts 140°
2026-05-07 20:31 -18.15492 -45.85177 33101 ft 420 kts 140°
2026-05-07 20:32 -18.19721 -45.80992 33102 ft 420 kts 140°
2026-05-07 20:32 -18.23979 -45.76774 33102 ft 420 kts 140°
2026-05-07 20:33 -18.28244 -45.72547 33100 ft 420 kts 140°
2026-05-07 20:33 -18.32490 -45.68334 33085 ft 410 kts 140°
2026-05-07 20:33 -18.34505 -45.66330 32986 ft 399 kts 141°
2026-05-07 20:34 -18.36516 -45.64332 32721 ft 392 kts 141°
2026-05-07 20:34 -18.38490 -45.62374 32366 ft 388 kts 141°
2026-05-07 20:34 -18.40446 -45.60434 32005 ft 384 kts 141°
2026-05-07 20:34 -18.42391 -45.58501 31632 ft 381 kts 141°
2026-05-07 20:35 -18.44268 -45.56584 31273 ft 380 kts 136°
2026-05-07 20:35 -18.45982 -45.54453 30918 ft 379 kts 132°
2026-05-07 20:35 -18.47579 -45.52247 30559 ft 377 kts 131°
2026-05-07 20:35 -18.49137 -45.50029 30198 ft 375 kts 130°
2026-05-07 20:36 -18.50685 -45.47824 29825 ft 372 kts 131°
2026-05-07 20:36 -18.52228 -45.45647 29460 ft 369 kts 131°
2026-05-07 20:36 -18.53251 -45.44217 29200 ft 367 kts 131°
2026-05-07 20:36 -18.55288 -45.41389 28717 ft 363 kts 131°
2026-05-07 20:37 -18.56822 -45.39272 28342 ft 361 kts 131°
2026-05-07 20:37 -18.58345 -45.37177 27972 ft 358 kts 131°
2026-05-07 20:37 -18.59347 -45.35799 27727 ft 357 kts 131°
2026-05-07 20:37 -18.60857 -45.33726 27360 ft 354 kts 131°
2026-05-07 20:38 -18.62352 -45.31671 27002 ft 352 kts 131°
2026-05-07 20:38 -18.63841 -45.29627 26642 ft 350 kts 130°
2026-05-07 20:38 -18.65320 -45.27594 26282 ft 347 kts 130°
2026-05-07 20:38 -18.66770 -45.25601 25933 ft 345 kts 130°
2026-05-07 20:39 -18.68226 -45.23599 25579 ft 343 kts 130°
2026-05-07 20:39 -18.69674 -45.21607 25229 ft 341 kts 130°
2026-05-07 20:40 -18.70529 -45.20431 25020 ft 340 kts 130°
2026-05-07 20:40 -18.71964 -45.18456 24668 ft 338 kts 129°
2026-05-07 20:40 -18.73391 -45.16492 24312 ft 336 kts 129°
2026-05-07 20:40 -18.74795 -45.14558 23971 ft 334 kts 129°
2026-05-07 20:41 -18.76204 -45.12618 23626 ft 332 kts 129°
2026-05-07 20:41 -18.77605 -45.10687 23272 ft 331 kts 129°
2026-05-07 20:41 -18.79000 -45.08764 22933 ft 329 kts 129°
2026-05-07 20:41 -18.80397 -45.06838 22589 ft 328 kts 129°
2026-05-07 20:42 -18.81768 -45.04948 22245 ft 326 kts 128°
2026-05-07 20:42 -18.83147 -45.03045 21902 ft 325 kts 128°
2026-05-07 20:42 -18.84520 -45.01151 21562 ft 323 kts 128°
2026-05-07 20:42 -18.85867 -44.99291 21227 ft 322 kts 128°
2026-05-07 20:43 -18.87224 -44.97417 20889 ft 320 kts 128°
2026-05-07 20:43 -18.88577 -44.95549 20564 ft 319 kts 128°
2026-05-07 20:43 -18.89922 -44.93689 20221 ft 317 kts 128°
2026-05-07 20:43 -18.91261 -44.91839 19889 ft 316 kts 128°
2026-05-07 20:44 -18.92594 -44.89995 19561 ft 314 kts 127°
2026-05-07 20:44 -18.93920 -44.88162 19226 ft 313 kts 127°
2026-05-07 20:44 -18.95241 -44.86334 18899 ft 312 kts 127°
2026-05-07 20:44 -18.96539 -44.84539 18577 ft 311 kts 127°
2026-05-07 20:45 -18.97849 -44.82725 18255 ft 309 kts 127°
2026-05-07 20:45 -18.99154 -44.80918 17941 ft 308 kts 127°
2026-05-07 20:45 -19.00454 -44.79116 17619 ft 306 kts 127°
2026-05-07 20:45 -19.01731 -44.77347 17306 ft 305 kts 126°
2026-05-07 20:46 -19.03018 -44.75563 16989 ft 304 kts 126°
2026-05-07 20:46 -19.04301 -44.73785 16677 ft 302 kts 126°
2026-05-07 20:46 -19.05574 -44.72019 16368 ft 301 kts 126°
2026-05-07 20:46 -19.06842 -44.70261 16054 ft 300 kts 126°
2026-05-07 20:47 -19.08096 -44.68521 15751 ft 302 kts 126°
2026-05-07 20:47 -19.09374 -44.66746 15439 ft 305 kts 126°
2026-05-07 20:47 -19.10677 -44.64937 15132 ft 312 kts 126°
2026-05-07 20:47 -19.12002 -44.63095 14802 ft 316 kts 126°
2026-05-07 20:48 -19.13331 -44.61249 14460 ft 314 kts 126°
2026-05-07 20:48 -19.14651 -44.59415 14126 ft 313 kts 126°
2026-05-07 20:48 -19.15969 -44.57582 13796 ft 311 kts 126°
2026-05-07 20:48 -19.17276 -44.55763 13480 ft 310 kts 126°
2026-05-07 20:49 -19.17987 -44.54772 13302 ft 309 kts 125°
2026-05-07 20:50 -19.19287 -44.52963 12984 ft 308 kts 125°
2026-05-07 20:50 -19.20581 -44.51161 12656 ft 306 kts 125°
2026-05-07 20:50 -19.21857 -44.49387 12343 ft 305 kts 125°
2026-05-07 20:50 -19.23139 -44.47601 12023 ft 304 kts 125°
2026-05-07 20:51 -19.24420 -44.45819 11694 ft 303 kts 125°
2026-05-07 20:51 -19.25697 -44.44038 11390 ft 302 kts 125°
2026-05-07 20:51 -19.26960 -44.42274 11081 ft 300 kts 125°
2026-05-07 20:51 -19.28209 -44.40532 10776 ft 299 kts 125°
2026-05-07 20:52 -19.28848 -44.39640 10614 ft 299 kts 125°
2026-05-07 20:52 -19.30103 -44.37889 10329 ft 296 kts 125°
2026-05-07 20:52 -19.31333 -44.36175 10203 ft 288 kts 125°
2026-05-07 20:52 -19.32418 -44.34428 9984 ft 281 kts 110°
2026-05-07 20:53 -19.33047 -44.32485 9763 ft 278 kts 105°
2026-05-07 20:53 -19.33640 -44.30556 9507 ft 280 kts 106°
2026-05-07 20:53 -19.34271 -44.28576 9257 ft 281 kts 107°
2026-05-07 20:53 -19.34897 -44.26649 8989 ft 279 kts 107°
2026-05-07 20:54 -19.35530 -44.24714 8741 ft 277 kts 107°
2026-05-07 20:54 -19.36163 -44.22784 8486 ft 276 kts 107°
2026-05-07 20:54 -19.37050 -44.20991 8200 ft 279 kts 130°
2026-05-07 20:54 -19.38485 -44.19612 7982 ft 277 kts 138°
2026-05-07 20:55 -19.39966 -44.18319 7716 ft 275 kts 138°
2026-05-07 20:55 -19.41419 -44.17045 7462 ft 273 kts 137°
2026-05-07 20:55 -19.42872 -44.15765 7241 ft 269 kts 137°
2026-05-07 20:55 -19.44260 -44.14519 7210 ft 251 kts 136°
2026-05-07 20:56 -19.45506 -44.13376 7293 ft 229 kts 136°
2026-05-07 20:56 -19.46667 -44.12303 7186 ft 213 kts 136°
2026-05-07 20:56 -19.47734 -44.11321 7053 ft 193 kts 135°
2026-05-07 20:56 -19.48715 -44.10415 6823 ft 179 kts 135°
2026-05-07 20:57 -19.49616 -44.09584 6540 ft 168 kts 134°
2026-05-07 20:57 -19.50460 -44.08803 6118 ft 161 kts 134°
2026-05-07 20:57 -19.51305 -44.08021 5613 ft 160 kts 135°
2026-05-07 20:57 -19.52138 -44.07280 5361 ft 148 kts 136°
2026-05-07 20:58 -19.52954 -44.06547 5167 ft 158 kts 136°
2026-05-07 20:58 -19.53797 -44.05775 4948 ft 160 kts 135°
2026-05-07 20:58 -19.54632 -44.05001 4736 ft 158 kts 136°
2026-05-07 20:58 -19.55456 -44.04234 4529 ft 158 kts 136°
2026-05-07 20:59 -19.56281 -44.03465 4315 ft 157 kts 136°
2026-05-07 20:59 -19.57105 -44.02700 4102 ft 157 kts 136°
2026-05-07 20:59 -19.57912 -44.01950 3898 ft 155 kts 136°
2026-05-07 20:59 -19.58723 -44.01195 3707 ft 156 kts 136°
2026-05-07 21:00 -19.59542 -44.00432 3484 ft 156 kts 136°
2026-05-07 21:00 -19.60356 -43.99674 3283 ft 155 kts 136°
2026-05-07 21:00 -19.61155 -43.98921 3087 ft 152 kts 136°
2026-05-07 21:00 -19.61946 -43.98196 2926 ft 149 kts 138°
2026-05-07 21:01 -19.62717 -43.97479 2817 ft 139 kts 137°
2026-05-07 21:01 -19.63343 -43.96894 2809 ft 92 kts 139°
2026-05-07 21:01 -19.63546 -43.96702 2809 ft 5 kts 128°
2026-05-07 21:01 -19.63566 -43.96661 2812 ft 7 kts 112°
2026-05-07 21:02 -19.63583 -43.96614 2813 ft 7 kts 110°
2026-05-07 21:02 -19.63596 -43.96567 2810 ft 7 kts 104°
2026-05-07 21:02 -19.63605 -43.96520 2809 ft 6 kts 87°
2026-05-07 21:02 -19.63577 -43.96483 2812 ft 7 kts 24°
2026-05-07 21:03 -19.63524 -43.96503 2810 ft 10 kts 321°
2026-05-07 21:03 -19.63464 -43.96557 2813 ft 13 kts 319°
2026-05-07 21:03 -19.63389 -43.96625 2812 ft 16 kts 320°
2026-05-07 21:03 -19.63296 -43.96695 2810 ft 17 kts 348°
2026-05-07 21:04 -19.63196 -43.96654 2810 ft 12 kts 22°
2026-05-07 21:04 -19.63120 -43.96613 2816 ft 12 kts 42°
2026-05-07 21:04 -19.63091 -43.96586 2810 ft 0 kts 42°
2026-05-07 21:04 -19.63089 -43.96584 2811 ft 0 kts 42°
2026-05-07 21:05 -19.63089 -43.96583 2810 ft 0 kts 42°